Location: Unspecified
(0.0000°N, 1.0000°E)
Time: 21:24:32
(UTC+01:00)

Amateur Radio Satellites - All Passes

Search period start: 28 November 2014 20:54
Search period end: 29 November 2014 20:54
Location: Unspecified, 0.0000°N, 1.0000°E

Satellite Date Start Highest point End Downlink Frequencies (MHz)
Time Altitude Azimuth
CUTE 1.7 + AOD 2 28 Nov 21:05:12 21:08:55 30° 79° (ENE) 21:12:36 437.475
BRITE-PL 28 Nov 21:19:04 21:24:25 56° 79° (E) 21:29:23 437.365/2234.400
DOVE 4 28 Nov 21:20:54 21:24:58 26° 80° (E) 21:28:49 437.250
JUGNU 28 Nov 21:28:41 21:33:11 23° 343° (NNW) 21:37:42 437.505
SEEDS 28 Nov 21:34:11 21:38:22 71° 79° (ENE) 21:42:31 437.485
CINEMA 3 28 Nov 21:36:52 21:40:20 21° 79° (E) 21:43:40 145.822/145.860
DELFI C3 28 Nov 21:38:05 21:40:37 16° 78° (ENE) 21:43:08 145.870
UKube-1 28 Nov 21:42:48 21:46:06 21° 78° (ENE) 21:49:23 .
SRMSAT 28 Nov 21:42:48 21:48:23 42° 340° (NNW) 21:53:58 437.500
GONETS M04 28 Nov 21:42:49 21:49:54 28° 267° (W) 21:57:01
AAUSAT CUBESAT 2 28 Nov 21:45:22 21:49:30 70° 78° (ENE) 21:53:37 437.432
Oscar 11 28 Nov 21:51:23 21:55:16 33° 78° (ENE) 21:59:08 145.826/435.025
FUNcube-1 28 Nov 21:52:41 21:53:44 11° 79° (E) 21:54:47 145.935
COMPASS 1 28 Nov 22:02:43 22:06:46 52° 259° (WSW) 22:10:49 437.405
CANX-2 28 Nov 22:06:47 22:10:22 27° 258° (WSW) 22:13:56 2200.000
GOMX 1 28 Nov 22:14:51 22:19:46 43° 257° (WSW) 22:24:22 467.674
HUMSAT D 28 Nov 22:15:55 22:17:37 12° 79° (ENE) 22:19:18 437.325/437.525
HO-68 28 Nov 22:16:40 22:23:16 40° 255° (WSW) 22:29:53 435.675
DX 1 28 Nov 22:20:04 22:24:29 79° 78° (ENE) 22:28:51 434.975-435.025
UWE-3 28 Nov 22:22:53 22:27:01 40° 79° (E) 22:31:01 435.000/436.395/437.385
CUBEBUG 2 28 Nov 22:28:21 22:32:45 61° 79° (ENE) 22:36:59 437.445
TIGRISAT 28 Nov 22:33:09 22:36:38 21° 103° (ESE) 22:40:11 435.000
VERMONT LUNAR 28 Nov 22:37:17 22:40:52 74° 223° (SW) 22:44:27 437.305
PHONESAT 2.4 28 Nov 22:37:45 22:41:22 57° 43° (NE) 22:44:59 2401.200-2431.200
UNISAT 6 28 Nov 22:47:42 22:51:53 34° 102° (ESE) 22:56:09 437.425
ZACube-1 28 Nov 22:51:19 22:55:41 89° 79° (E) 22:59:55 437.345
DOVE 4 28 Nov 22:59:18 23:02:25 17° 256° (WSW) 23:05:25 437.250
VELOX 1 28 Nov 23:02:20 23:06:48 67° 78° (ENE) 23:11:14 145.980
POLYITAN 1 28 Nov 23:02:25 23:06:12 32° 102° (ESE) 23:10:00 437.675
QB50P2 28 Nov 23:03:15 23:07:03 33° 102° (ESE) 23:10:53 145.880/145.840
DUCHIFAT 1 28 Nov 23:07:17 23:11:10 36° 102° (ESE) 23:15:04 145.980
ESTCUBE 1 28 Nov 23:11:54 23:15:37 25° 78° (ENE) 23:19:19 437.505/2401.250
DELFI C3 28 Nov 23:12:57 23:15:39 17° 258° (WSW) 23:18:22 145.870
CINEMA 3 28 Nov 23:14:09 23:17:16 18° 257° (WSW) 23:20:17 145.822/145.860
ANTELSAT 28 Nov 23:16:20 23:20:57 88° 102° (ESE) 23:25:41 437.575/2403.000
50 SAT 28 Nov 23:18:23 23:22:28 90° 79° (E) 23:26:30 437.505
UKube-1 28 Nov 23:19:19 23:22:00 16° 257° (WSW) 23:24:40 .
JUGNU 28 Nov 23:21:01 23:22:58 12° 352° (N) 23:24:55 437.505
CUSAT 1 28 Nov 23:24:24 23:26:35 11° 90° (E) 23:28:51 437.405
FUNcube-1 28 Nov 23:26:07 23:29:52 29° 258° (WSW) 23:33:32 145.935
NANOSAT C BR1 28 Nov 23:26:51 23:31:03 75° 102° (ESE) 23:35:18 145.865
AISAT 28 Nov 23:30:31 23:34:51 46° 258° (WSW) 23:39:09 437.250
CUBEBUG 1 28 Nov 23:32:40 23:36:57 46° 78° (ENE) 23:41:12 437.445
BUGSAT 1 28 Nov 23:32:50 23:36:50 70° 102° (ESE) 23:40:51 437.445
SRMSAT 28 Nov 23:34:01 23:37:58 18° 346° (NNW) 23:41:56 437.500
QB50P1 28 Nov 23:37:10 23:41:22 76° 282° (WNW) 23:45:37 145.935-145.965
HUMSAT D 28 Nov 23:49:46 23:53:11 24° 258° (WSW) 23:56:33 437.325/437.525
DANDE 28 Nov 23:59:15 00:04:42 25° 90° (E) 00:10:58 436.750
POPSAT HIP 1 29 Nov 00:02:49 00:06:33 31° 282° (WNW) 00:10:20 437.405
TIGRISAT 29 Nov 00:09:56 00:13:07 19° 282° (WNW) 00:16:21 435.000
TISAT 1 29 Nov 00:26:04 00:30:11 45° 78° (ENE) 00:34:15 437.305
UNISAT 6 29 Nov 00:27:03 00:28:26 11° 282° (WNW) 00:29:49 437.425
SPROUT 29 Nov 00:44:51 00:49:11 73° 78° (ENE) 00:53:29 437.525
ESTCUBE 1 29 Nov 00:49:42 00:52:13 15° 258° (WSW) 00:54:45 437.505/2401.250
ITUPSAT 1 29 Nov 01:00:48 01:01:38 10° 77° (ENE) 01:02:29 437.325
CUSAT 1 29 Nov 01:01:57 01:08:51 76° 265° (W) 01:17:13 437.405
SWISSCUBE 29 Nov 01:08:24 01:11:23 17° 77° (ENE) 01:14:21 437.505
Oscar 19 29 Nov 01:13:40 01:17:04 18° 103° (ESE) 01:20:30 437.125/150
MaSat-1 29 Nov 01:27:01 01:28:49 16° 75° (ENE) 01:30:43 437.345
SRMSAT 29 Nov 01:27:03 01:28:07 10° 355° (N) 01:29:11 437.500
SO-50 29 Nov 01:34:15 01:37:36 21° 112° (ESE) 01:40:57 436.795
BEESAT 29 Nov 01:37:23 01:41:46 36° 78° (ENE) 01:46:08 436.000
DANDE 29 Nov 01:41:20 01:47:43 40° 263° (W) 01:55:23 436.750
AUBIESAT-1 29 Nov 01:44:23 01:47:56 54° 74° (ENE) 01:51:47 437.475
M-CUBED/EXP-1 PRIME 29 Nov 01:51:43 01:55:19 85° 75° (ENE) 01:59:14 437.505
RS-15 29 Nov 02:05:17 02:15:43 38° 69° (ENE) 02:26:27 29.354- 29.394
ITAMSAT 1 29 Nov 02:12:25 02:16:44 27° 103° (ESE) 02:21:02 435.822/435.867
YUBILEINY 29 Nov 02:27:41 02:36:23 62° 93° (E) 02:45:00 435.215
ITUPSAT 1 29 Nov 02:34:48 02:39:15 39° 258° (WSW) 02:43:42 437.325
SWISSCUBE 29 Nov 02:45:02 02:48:58 26° 258° (WSW) 02:52:54 437.505
HORYU 2 29 Nov 02:50:55 02:52:05 11° 103° (ESE) 02:53:14 437.375
Oscar 19 29 Nov 02:51:46 02:56:07 28° 282° (WNW) 03:00:31 437.125/150
KKS-1 29 Nov 02:52:33 02:56:53 50° 78° (ENE) 03:01:11 437.445
JUGNU 29 Nov 02:59:53 03:03:16 15° 13° (NNE) 03:06:38 437.505
Gurwin Techsat 1B 29 Nov 03:01:19 03:06:28 54° 103° (ESE) 03:11:39 435.225
SO-50 29 Nov 03:15:06 03:17:52 16° 293° (WNW) 03:20:39 436.795
SRMSAT 29 Nov 03:17:04 03:18:32 11° 6° (N) 03:20:00 437.500
BEESAT 29 Nov 03:17:58 03:19:19 11° 257° (WSW) 03:20:41 436.000
STARS 29 Nov 03:41:53 03:46:12 52° 258° (WSW) 03:50:29 437.465
AO-7 29 Nov 03:44:07 03:50:28 24° 107° (ESE) 03:56:48 29.400- 29.500
ITAMSAT 1 29 Nov 03:52:31 03:55:56 18° 283° (WNW) 03:59:23 435.822/435.867
O/OREOS (USA 219) 29 Nov 04:16:44 04:19:29 16° 105° (ESE) 04:22:13 437.305
RS-15 29 Nov 04:17:00 04:27:42 41° 249° (WSW) 04:38:51 29.354- 29.394
HORYU 2 29 Nov 04:24:26 04:28:28 33° 282° (WNW) 04:32:31 437.375
YUBILEINY 29 Nov 04:28:07 04:32:45 15° 273° (W) 04:37:25 435.215
JUGNU 29 Nov 04:47:29 04:52:49 34° 19° (NNE) 04:58:10 437.505
SRMSAT 29 Nov 05:04:25 05:08:38 20° 15° (NNE) 05:12:51 437.500
PCSat 29 Nov 05:32:42 05:36:28 19° 70° (ENE) 05:40:13 145.827
AO-7 29 Nov 05:35:03 05:42:52 45° 286° (WNW) 05:50:42 29.400- 29.500
BEESAT 3 29 Nov 05:54:26 05:57:14 18° 68° (ENE) 06:00:00 437.485
O/OREOS (USA 219) 29 Nov 05:55:09 05:58:37 22° 284° (WNW) 06:02:03 437.305
MOZHAYETS 4 29 Nov 05:55:47 06:00:11 48° 258° (WSW) 06:04:36
CUTE-I 29 Nov 05:57:08 06:00:20 16° 103° (ESE) 06:03:33 437.470
PRISM 29 Nov 06:00:28 06:03:27 19° 78° (ENE) 06:06:26 437.425
BEESAT 2 29 Nov 06:11:49 06:15:20 27° 68° (ENE) 06:18:49 435.950
JAS-2 29 Nov 06:17:21 06:23:06 51° 283° (WNW) 06:28:20 435.910
STRAND 1 29 Nov 06:20:49 06:22:20 11° 77° (ENE) 06:23:50 437.568
JUGNU 29 Nov 06:35:57 06:41:58 90° 21° (NNE) 06:47:59 437.505
SRMSAT 29 Nov 06:52:28 06:58:11 46° 20° (NNE) 07:03:54 437.500
AIST 1 29 Nov 06:53:24 06:55:45 15° 86° (E) 06:58:07
Cubesat XI-IV 29 Nov 06:54:24 06:59:42 86° 103° (ESE) 07:05:02 437.490
AIST 2 29 Nov 07:00:05 07:04:10 52° 68° (ENE) 07:08:11 435.215
PCSat 29 Nov 07:15:04 07:19:36 28° 251° (WSW) 07:24:09 145.827
BEESAT 3 29 Nov 07:32:34 07:35:11 17° 248° (WSW) 07:37:48 437.485
CUTE-I 29 Nov 07:35:29 07:40:07 32° 283° (WNW) 07:44:47 437.470
PRISM 29 Nov 07:36:10 07:38:44 16° 258° (WSW) 07:41:19 437.425
CUBESAT XI-V 29 Nov 07:46:10 07:50:41 46° 258° (WSW) 07:55:12 437.345
BEESAT 2 29 Nov 07:52:31 07:53:21 11° 248° (WSW) 07:54:11 435.950
STRAND 1 29 Nov 07:56:23 08:01:14 42° 257° (WSW) 08:06:04 437.568
ISS 29 Nov 08:16:07 08:19:23 66° 55° (NE) 08:22:40 145.825
GONETS M04 29 Nov 08:18:19 08:27:02 71° 93° (E) 08:35:46
HO-68 29 Nov 08:22:56 08:27:28 18° 105° (ESE) 08:31:59 435.675
JUGNU 29 Nov 08:25:45 08:31:07 34° 199° (SSW) 08:36:30 437.505
AIST 1 29 Nov 08:30:01 08:33:08 20° 266° (W) 08:36:15
CANX-2 29 Nov 08:39:26 08:41:51 15° 102° (ESE) 08:44:16 2200.000
SRMSAT 29 Nov 08:41:30 08:47:26 65° 201° (SSW) 08:53:21 437.500
GOMX 1 29 Nov 09:01:35 09:04:47 19° 104° (ESE) 09:08:09 467.674
CUTE 1.7 + AOD 2 29 Nov 09:11:59 09:16:00 39° 102° (ESE) 09:20:02 437.475
DELFI C3 29 Nov 09:40:09 09:42:58 18° 102° (ESE) 09:45:47 145.870
SEEDS 29 Nov 09:40:26 09:44:43 89° 101° (ESE) 09:49:01 437.485
DOVE 4 29 Nov 09:40:55 09:45:14 46° 102° (ESE) 09:49:50 437.250
BRITE-PL 29 Nov 09:45:45 09:50:05 68° 281° (W) 09:54:48 437.365/2234.400
AAUSAT CUBESAT 2 29 Nov 09:50:28 09:54:42 85° 101° (ESE) 09:58:57 437.432
UKube-1 29 Nov 09:51:51 09:55:33 28° 102° (ESE) 09:59:15 .
CINEMA 3 29 Nov 09:52:26 09:56:34 35° 102° (ESE) 10:00:53 145.822/145.860
Oscar 11 29 Nov 10:00:08 10:04:18 46° 102° (ESE) 10:08:29 145.826/435.025
FUNcube-1 29 Nov 10:01:06 10:03:53 16° 103° (ESE) 10:06:42 145.935
HO-68 29 Nov 10:08:03 10:14:49 48° 285° (WNW) 10:21:37 435.675
COMPASS 1 29 Nov 10:08:20 10:12:22 43° 281° (WNW) 10:16:25 437.405
AISAT 29 Nov 10:10:03 10:11:22 11° 103° (ESE) 10:12:40 437.250
CANX-2 29 Nov 10:14:10 10:17:31 22° 282° (WNW) 10:20:53 2200.000
JUGNU 29 Nov 10:17:15 10:20:41 16° 193° (SSW) 10:24:07 437.505
VERMONT LUNAR 29 Nov 10:18:34 10:22:08 87° 317° (NW) 10:25:42 437.305
GONETS M04 29 Nov 10:20:16 10:23:28 12° 273° (W) 10:26:41
HUMSAT D 29 Nov 10:21:09 10:23:45 16° 102° (ESE) 10:26:23 437.325/437.525
PHONESAT 2.4 29 Nov 10:21:20 10:24:55 52° 137° (SE) 10:28:29 2401.200-2431.200
DX 1 29 Nov 10:30:11 10:34:30 75° 282° (WNW) 10:38:49 434.975-435.025
SRMSAT 29 Nov 10:32:00 10:36:50 25° 197° (SSW) 10:41:39 437.500
UWE-3 29 Nov 10:34:04 10:38:27 62° 102° (ESE) 10:43:00 435.000/436.395/437.385
POPSAT HIP 1 29 Nov 10:36:21 10:38:15 13° 78° (ENE) 10:40:09 437.405
GOMX 1 29 Nov 10:39:26 10:42:39 20° 280° (W) 10:46:02 467.674
CUBEBUG 2 29 Nov 10:40:51 10:45:19 87° 282° (WNW) 10:49:58 437.445
TIGRISAT 29 Nov 10:46:46 10:50:34 30° 79° (ENE) 10:54:18 435.000
ZACube-1 29 Nov 11:01:32 11:05:54 65° 281° (WNW) 11:10:24 437.345
UNISAT 6 29 Nov 11:01:55 11:06:10 52° 78° (ENE) 11:10:18 437.425
POLYITAN 1 29 Nov 11:09:51 11:13:55 41° 78° (ENE) 11:17:56 437.675
QB50P2 29 Nov 11:10:27 11:14:32 42° 78° (ENE) 11:18:33 145.880/145.840
DUCHIFAT 1 29 Nov 11:14:08 11:18:15 47° 78° (ENE) 11:22:20 145.980
VELOX 1 29 Nov 11:14:56 11:19:19 81° 282° (WNW) 11:23:45 145.980
DELFI C3 29 Nov 11:15:22 11:18:00 17° 282° (WNW) 11:20:38 145.870
50 SAT 29 Nov 11:20:38 11:24:44 84° 281° (WNW) 11:28:54 437.505
ESTCUBE 1 29 Nov 11:26:05 11:30:17 39° 102° (ESE) 11:34:28 437.505/2401.250
UKube-1 29 Nov 11:29:59 11:31:27 12° 282° (WNW) 11:32:55 .
ANTELSAT 29 Nov 11:31:02 11:35:19 56° 258° (WSW) 11:39:30 437.575/2403.000
CINEMA 3 29 Nov 11:32:42 11:33:35 11° 281° (W) 11:34:28 145.822/145.860
NANOSAT C BR1 29 Nov 11:33:57 11:38:15 85° 259° (WSW) 11:42:30 145.865
FUNcube-1 29 Nov 11:36:34 11:39:57 22° 281° (W) 11:43:25 145.935
BUGSAT 1 29 Nov 11:36:48 11:41:05 83° 78° (ENE) 11:45:21 437.445
CUBEBUG 1 29 Nov 11:43:26 11:47:43 67° 102° (ESE) 11:52:01 437.445
AISAT 29 Nov 11:43:52 11:47:43 30° 282° (WNW) 11:51:36 437.250
QB50P1 29 Nov 11:44:25 11:48:39 59° 258° (WSW) 11:52:50 145.935-145.965
HUMSAT D 29 Nov 11:56:08 11:59:18 21° 281° (WNW) 12:02:31 437.325/437.525
PHONESAT 2.4 29 Nov 12:03:02 12:03:36 10° 319° (NW) 12:04:11 2401.200-2431.200
POPSAT HIP 1 29 Nov 12:10:22 12:13:54 25° 258° (WSW) 12:17:25 437.405
CUSAT 1 29 Nov 12:13:28 12:15:52 17° 101° (E) 12:17:57 437.405
SRMSAT 29 Nov 12:24:18 12:26:44 13° 189° (S) 12:29:09 437.500
TIGRISAT 29 Nov 12:26:16 12:27:02 10° 257° (WSW) 12:27:47 435.000
TISAT 1 29 Nov 12:32:41 12:36:47 56° 102° (ESE) 12:40:56 437.305
SPROUT 29 Nov 12:53:20 12:57:36 84° 282° (WNW) 13:01:54 437.525
DANDE 29 Nov 12:53:31 12:57:33 70° 97° (E) 13:00:38 436.750
MaSat-1 29 Nov 13:01:12 13:02:02 11° 110° (ESE) 13:02:51 437.345
YUBILEINY 29 Nov 13:10:36 13:13:22 12° 87° (E) 13:16:07 435.215
ITUPSAT 1 29 Nov 13:20:44 13:24:17 21° 103° (ESE) 13:27:51 437.325
SWISSCUBE 29 Nov 13:29:36 13:33:48 31° 102° (ESE) 13:38:00 437.505
Oscar 19 29 Nov 13:46:03 13:50:55 45° 78° (ENE) 13:55:46 437.125/150
SO-50 29 Nov 13:46:17 13:50:55 44° 68° (ENE) 13:55:31 436.795
AUBIESAT-1 29 Nov 13:47:54 13:52:27 67° 105° (ESE) 13:56:39 437.475
RS-15 29 Nov 13:49:11 13:58:40 30° 112° (ESE) 14:07:45 29.354- 29.394
M-CUBED/EXP-1 PRIME 29 Nov 13:55:37 14:00:15 84° 285° (WNW) 14:04:33 437.505
JUGNU 29 Nov 13:58:58 14:01:00 12° 172° (S) 14:03:02 437.505
BEESAT 29 Nov 13:59:19 14:04:03 73° 102° (ESE) 14:08:48 436.000
MaSat-1 29 Nov 14:34:06 14:36:16 16° 285° (WNW) 14:38:19 437.345
ITAMSAT 1 29 Nov 14:46:40 14:51:53 75° 77° (ENE) 14:57:05 435.822/435.867
ITUPSAT 1 29 Nov 14:58:30 15:01:54 20° 283° (WNW) 15:05:20 437.325
YUBILEINY 29 Nov 15:01:09 15:09:45 72° 267° (W) 15:18:25 435.215
HORYU 2 29 Nov 15:02:41 15:05:27 16° 78° (ENE) 15:08:12 437.375
KKS-1 29 Nov 15:05:21 15:09:47 77° 102° (ESE) 15:14:15 437.445
SWISSCUBE 29 Nov 15:09:16 15:11:23 13° 283° (WNW) 15:13:30 437.505
Gurwin Techsat 1B 29 Nov 15:39:56 15:45:05 51° 257° (WSW) 15:50:13 435.225
JUGNU 29 Nov 15:46:16 15:50:48 23° 163° (SSE) 15:55:19 437.505
STARS 29 Nov 15:53:52 15:57:52 35° 282° (WNW) 16:01:55 437.465
RS-15 29 Nov 16:00:02 16:10:36 46° 291° (WNW) 16:20:53 29.354- 29.394
SRMSAT 29 Nov 16:04:18 16:07:22 14° 168° (SSE) 16:10:25 437.500
AO-7 29 Nov 16:09:16 16:16:51 40° 74° (ENE) 16:24:23 29.400- 29.500
O/OREOS (USA 219) 29 Nov 16:26:34 16:30:20 27° 76° (ENE) 16:34:09 437.305
MOZHAYETS 4 29 Nov 16:38:08 16:40:21 13° 102° (ESE) 16:42:35
HORYU 2 29 Nov 16:38:31 16:41:52 21° 258° (WSW) 16:45:12 437.375
JUGNU 29 Nov 17:34:18 17:40:04 57° 159° (SSE) 17:45:47 437.505
JAS-2 29 Nov 17:46:59 17:54:01 79° 77° (ENE) 18:01:43 435.910
BEESAT 3 29 Nov 17:50:32 17:53:29 20° 112° (ESE) 17:56:27 437.485
SRMSAT 29 Nov 17:51:58 17:57:07 30° 161° (SSE) 18:02:16 437.500
Cubesat XI-IV 29 Nov 17:56:20 17:59:39 17° 77° (ENE) 18:02:58 437.490
AO-7 29 Nov 18:02:38 18:09:15 27° 253° (WSW) 18:15:54 29.400- 29.500
PRISM 29 Nov 18:04:57 18:08:12 22° 102° (ESE) 18:11:26 437.425
PCSat 29 Nov 18:07:27 18:12:46 60° 109° (ESE) 18:18:04 145.827
O/OREOS (USA 219) 29 Nov 18:07:29 18:09:28 13° 255° (WSW) 18:11:29 437.305
BEESAT 2 29 Nov 18:08:28 18:12:03 32° 112° (ESE) 18:15:39 435.950
MOZHAYETS 4 29 Nov 18:13:21 18:17:18 28° 282° (WNW) 18:21:16
CUBESAT XI-V 29 Nov 18:29:42 18:32:15 15° 102° (ESE) 18:34:49 437.345
CUTE-I 29 Nov 18:34:44 18:39:55 49° 77° (ENE) 18:45:03 437.470
STRAND 1 29 Nov 18:50:38 18:54:58 29° 103° (ESE) 18:59:18 437.568
AIST 2 29 Nov 18:59:17 19:03:22 68° 111° (ESE) 19:07:29 435.215
AIST 1 29 Nov 18:59:31 19:02:51 21° 94° (E) 19:06:10
GONETS M04 29 Nov 18:59:51 19:04:17 15° 87° (E) 19:08:41
JUGNU 29 Nov 19:23:27 19:29:06 51° 339° (NNW) 19:34:45 437.505
BEESAT 3 29 Nov 19:29:16 19:31:26 14° 292° (WNW) 19:33:37 437.485
Cubesat XI-IV 29 Nov 19:34:44 19:39:28 32° 257° (WSW) 19:44:11 437.490
SRMSAT 29 Nov 19:40:29 19:46:25 82° 159° (SSE) 19:52:23 437.500
PRISM 29 Nov 19:41:23 19:43:29 14° 282° (WNW) 19:45:35 437.425
ISS 29 Nov 19:51:26 19:54:34 39° 126° (SE) 19:57:39 145.825
CUBESAT XI-V 29 Nov 20:05:40 20:09:26 25° 282° (WNW) 20:13:13 437.345
HO-68 29 Nov 20:15:24 20:19:06 15° 75° (ENE) 20:22:46 435.675
CUTE-I 29 Nov 20:18:52 20:19:40 10° 256° (WSW) 20:20:27 437.470
STRAND 1 29 Nov 20:30:45 20:33:53 17° 283° (WNW) 20:37:01 437.568
BRITE-PL 29 Nov 20:36:35 20:39:47 16° 80° (E) 20:42:50 437.365/2234.400
AIST 1 29 Nov 20:37:54 20:40:13 14° 274° (W) 20:42:33
CANX-2 29 Nov 20:46:16 20:49:09 18° 78° (ENE) 20:52:00 2200.000
